This is the latest recevied weather packets stored in our database for station/object OH6GKW. If no packets are shown the sender has not sent any weather packets the latest 10 day(s).
| Time | Temp. | Humidity | Pressure | Rain* | Wind** | Luminosity | Snow |
|---|---|---|---|---|---|---|---|
| 1777813433 | 8.33° C | 44% | 1006 hPa | 0.25 mm | - | 584 W/m² | - |
| 1777813111 | 8.89° C | 43% | 1006 hPa | 0.25 mm | - | 589 W/m² | - |
| 1777812838 | 8.89° C | 42% | 1006 hPa | 0.25 mm | - | 593 W/m² | - |
| 1777812512 | 8.89° C | 41% | 1006 hPa | 0.25 mm | - | 596 W/m² | - |
| 1777812227 | 8.89° C | 41% | 1006.1 hPa | 0.25 mm | - | 605 W/m² | - |
| 1777811918 | 8.89° C | 40% | 1006.1 hPa | 0.25 mm | - | 609 W/m² | - |
| 1777811613 | 8.89° C | 43% | 1006.1 hPa | 0.25 mm | - | 614 W/m² | - |
| 1777811323 | 8.89° C | 43% | 1006.2 hPa | 0.25 mm | - | 621 W/m² | - |
| 1777811018 | 8.89° C | 45% | 1006.2 hPa | 0.25 mm | - | 628 W/m² | - |
| 1777810725 | 8.33° C | 45% | 1006.2 hPa | 0.25 mm | - | 630 W/m² | - |
| 1777810430 | 8.89° C | 47% | 1006 hPa | 0.25 mm | - | 637 W/m² | - |
| 1777810113 | 8.89° C | 47% | 1006 hPa | 0.25 mm | - | 640 W/m² | - |
| 1777809821 | 8.33° C | 46% | 1006 hPa | 0.25 mm | - | 642 W/m² | - |
| 1777809534 | 8.33° C | 47% | 1005.9 hPa | 0.25 mm | - | 648 W/m² | - |
| 1777809232 | 8.33° C | 49% | 1005.9 hPa | 0.25 mm | - | 651 W/m² | - |
| 1777808930 | 8.33° C | 46% | 1005.9 hPa | 0.25 mm | - | 653 W/m² | - |
| 1777808626 | 8.33° C | 49% | 1006 hPa | 0.25 mm | - | 658 W/m² | - |
| 1777808317 | 7.78° C | 50% | 1006 hPa | 0.25 mm | - | 662 W/m² | - |
| 1777808012 | 7.78° C | 49% | 1006 hPa | 0.25 mm | - | 663 W/m² | - |
| 1777807721 | 7.78° C | 49% | 1006.2 hPa | 0.25 mm | - | 667 W/m² | - |
| 1777807417 | 7.78° C | 53% | 1006.2 hPa | 0.25 mm | - | 669 W/m² | - |
| 1777807111 | 7.22° C | 51% | 1006.2 hPa | 0.25 mm | - | 670 W/m² | - |
| 1777806828 | 7.22° C | 53% | 1006.1 hPa | 0.25 mm | - | 672 W/m² | - |
| 1777806523 | 7.78° C | 51% | 1006.1 hPa | 0.25 mm | - | 676 W/m² | - |
| 1777806220 | 7.78° C | 55% | 1006.1 hPa | 0.25 mm | - | 679 W/m² | - |
* Rain since midnight (hover to see other rain measurements)
** Current wind speed in m/s (hover to see current wind gust speed)